[ hide orbit diagram ]
For accurate long-term ephemerides, please instead use our Horizons system.This orbit viewer was implemented using two-body methods, and hence should not be used for determining accurate long-term trajectories (over several years or decades) or planetary encounter circumstances.
Orbital Elements at Epoch 2459000.5 (2020-May-31.0) TDB
Reference: JPL 15 (heliocentric ecliptic J2000)
Element | Value | Uncertainty (1-sigma) | Units |
e | .298064221035619 | 4.6973e-08 | |
a | 3.059227228812411 | 2.8151e-08 | au |
q | 2.147381047885484 | 1.3766e-07 | au |
i | 14.76328164965512 | 5.6334e-06 | deg |
node | 211.1743126778047 | 2.2317e-05 | deg |
peri | 330.266141539431 | 2.4655e-05 | deg |
M | 103.6836059477558 | 1.1339e-05 | deg |
tp | 2458437.609883644179 (2018-Nov-15.10988364) | 5.8629e-05 | TDB |
period | 1954.411597048449 5.35 | 2.6976e-05 7.386e-08 | d yr |
n | .1841986613995086 | 2.5424e-09 | deg/d |
Q | 3.971073409739338 | 3.6541e-08 | au |
|
| | Orbit Determination Parameters
Additional Information
|
[ show covariance matrix ]
Physical Parameter Table
Parameter |
Symbol |
Value |
Units |
Sigma |
Reference |
Notes |
absolute magnitude |
H |
15.8 |
|
n/a |
MPO477081 |
|
|
441409 (2008 GY1) Discovered 2008-Feb-13 by CSS at Catalina |
Reference: | Last Updated: 2015-09-02 |
|
[ show close-approach data ]
|